Aérodrome :
LOGIN :

S'inscrire | Disclaimer

   EN    FR    IT 

 










Légende :    VFR   VFR Marginal   IFR   IFR Intensif   IFR Très Intensif
Visi : 
Plafond : 
>= 8 km
>= 3000ft
5 à 8 km
1000 à 3000 ft
1500m à 5 km
500 à 1000 ft
800 à 1500m
200 à 500 ft
< 800m
< 200 ft
Symboles :   Orages  Brouillard  Fortes neiges  Fortes précipitations  Vent > 20 kt
SIGMETs :   Divers  Orages  Givrage  Turbulence  Onde Orograph.  Cendres Volcan.







- Altitude de l'aérodrome : 2297 ft


LEGA - Armilla

DERNIER METAR :
  • 161700Z 32008KT 270V360 CAVOK 37/04 Q1019

METARs EXPIRÉS :
  • 161600Z 32005KT 270V360 CAVOK 37/04 Q1019
  • 161500Z 35007KT 270V030 CAVOK 37/02 Q1019

TAF TAF LEGA
Valide du 16 à 15h jusqu'au 17 à 00h UTC


161400Z 1615/1624 18010KT CAVOK
PROB40
TEMPO 1615/1616 VRB03KT
BECMG 1621/1624 VRB03KT
Pas de NOTAMs connus pour ce terrain.



MET'MAP, la Météo Aéronautique d'un coup d'oeil ! - Copyright ORBIFLY Décembre 2007 - Disclaimer

ORBIFLY MET'MAP TEAM :

Programmation & Développement : Alexandra Zaïnal
Conception & Développement : Baudouin d'Aumeries
Co-Programmation & Développement : Marc-Olivier Méhu
Soutien technique & logistique : Manuel Goepfert

Contact : metmap@orbifly.com




SOURCES & CREDITS :

   NOAA